Time,TemperatureF,DewpointF,PressureIn,WindDirection,WindDirectionDegrees,WindSpeedMPH,WindSpeedGustMPH,Humidity,HourlyPrecipIn,Conditions,Clouds,dailyrainin,SolarRadiationWatts/m^2,SoftwareType,DateUTC
2013-05-19 00:05:00,53.3,51.0,30.28,SSW,198,0.0,-999.0,91,-99.99,,,0.00,0,weatherlink.com 1.10,2013-05-19 04:05:00,
2013-05-19 00:20:00,53.5,51.0,30.28,SSW,198,0.0,-999.0,91,-99.99,,,0.00,0,weatherlink.com 1.10,2013-05-19 04:20:00,
2013-05-19 00:35:00,53.5,51.0,30.27,SSW,198,0.0,-999.0,91,-99.99,,,0.00,0,weatherlink.com 1.10,2013-05-19 04:35:00,
2013-05-19 00:50:00,53.4,51.0,30.27,SSW,198,0.0,-999.0,91,-99.99,,,0.00,0,weatherlink.com 1.10,2013-05-19 04:50:00,
2013-05-19 01:05:00,53.3,51.0,30.27,SSW,198,0.0,-999.0,91,-99.99,,,0.00,0,weatherlink.com 1.10,2013-05-19 05:05:00,
2013-05-19 01:20:00,53.4,51.0,30.27,SSW,198,0.0,-999.0,92,-99.99,,,0.00,0,weatherlink.com 1.10,2013-05-19 05:20:00,
2013-05-19 01:35:00,53.5,51.0,30.26,SSW,198,0.0,-999.0,92,-99.99,,,0.00,0,weatherlink.com 1.10,2013-05-19 05:35:00,
2013-05-19 01:50:00,53.5,51.0,30.26,SSW,198,0.0,-999.0,92,-99.99,,,0.00,0,weatherlink.com 1.10,2013-05-19 05:50:00,
2013-05-19 02:05:00,53.5,51.0,30.26,SSW,198,0.0,-999.0,92,-99.99,,,0.00,0,weatherlink.com 1.10,2013-05-19 06:05:00,
2013-05-19 02:20:00,53.5,51.0,30.26,SSW,198,0.0,-999.0,92,-99.99,,,0.00,0,weatherlink.com 1.10,2013-05-19 06:20:00,
2013-05-19 02:35:00,53.6,52.0,30.26,SSW,198,0.0,-999.0,93,-99.99,,,0.00,0,weatherlink.com 1.10,2013-05-19 06:35:00,
2013-05-19 02:50:00,53.7,52.0,30.26,SSW,198,0.0,-999.0,93,-99.99,,,0.00,0,weatherlink.com 1.10,2013-05-19 06:50:00,
2013-05-19 03:05:00,53.8,52.0,30.26,SSW,198,0.0,-999.0,93,-99.99,,,0.00,0,weatherlink.com 1.10,2013-05-19 07:05:00,
2013-05-19 03:20:00,53.7,52.0,30.26,SSW,198,0.0,-999.0,93,-99.99,,,0.00,0,weatherlink.com 1.10,2013-05-19 07:20:00,
2013-05-19 03:35:00,53.7,52.0,30.26,SSW,198,0.0,-999.0,93,-99.99,,,0.00,0,weatherlink.com 1.10,2013-05-19 07:35:00,
2013-05-19 03:50:00,53.9,52.0,30.26,SSW,198,0.0,-999.0,93,-99.99,,,0.00,0,weatherlink.com 1.10,2013-05-19 07:50:00,
2013-05-19 04:05:00,54.1,52.0,30.26,SSW,198,0.0,-999.0,93,-99.99,,,0.00,0,weatherlink.com 1.10,2013-05-19 08:05:00,
2013-05-19 04:20:00,54.4,52.0,30.26,SSW,198,0.0,-999.0,92,-99.99,,,0.00,0,weatherlink.com 1.10,2013-05-19 08:20:00,
2013-05-19 04:35:00,54.5,52.0,30.26,SSW,198,0.0,-999.0,91,-99.99,,,0.00,0,weatherlink.com 1.10,2013-05-19 08:35:00,
2013-05-19 04:50:00,54.9,52.0,30.26,SSW,198,0.0,-999.0,90,-99.99,,,0.00,0,weatherlink.com 1.10,2013-05-19 08:50:00,
2013-05-19 05:05:00,55.0,52.0,30.27,SSW,198,0.0,-999.0,89,-99.99,,,0.00,0,weatherlink.com 1.10,2013-05-19 09:05:00,
2013-05-19 05:20:00,55.1,52.0,30.27,SSW,198,1.0,-999.0,90,-99.99,,,0.00,0,weatherlink.com 1.10,2013-05-19 09:20:00,
2013-05-19 05:35:00,55.0,53.0,30.27,SSW,198,0.0,-999.0,92,-99.99,,,0.01,0,weatherlink.com 1.10,2013-05-19 09:35:00,
2013-05-19 05:50:00,54.8,53.0,30.27,SSW,198,2.0,-999.0,93,-99.99,,,0.03,0,weatherlink.com 1.10,2013-05-19 09:50:00,
2013-05-19 06:05:00,54.7,53.0,30.27,SSW,198,0.0,-999.0,94,-99.99,,,0.03,5,weatherlink.com 1.10,2013-05-19 10:05:00,
2013-05-19 06:20:00,54.7,53.0,30.28,SSW,198,0.0,-999.0,94,-99.99,,,0.04,7,weatherlink.com 1.10,2013-05-19 10:20:00,
2013-05-19 06:35:00,54.7,53.0,30.27,SSW,198,4.0,-999.0,95,-99.99,,,0.04,16,weatherlink.com 1.10,2013-05-19 10:35:00,
2013-05-19 06:50:00,54.8,53.0,30.28,SSW,198,0.0,-999.0,95,-99.99,,,0.06,28,weatherlink.com 1.10,2013-05-19 10:50:00,
2013-05-19 07:05:00,55.0,54.0,30.28,SE,134,0.0,-999.0,96,-99.99,,,0.07,32,weatherlink.com 1.10,2013-05-19 11:05:00,
2013-05-19 07:20:00,55.1,54.0,30.28,SSW,198,1.0,-999.0,96,-99.99,,,0.08,37,weatherlink.com 1.10,2013-05-19 11:20:00,
2013-05-19 07:35:00,55.4,54.0,30.28,South,190,4.0,-999.0,96,-99.99,,,0.09,53,weatherlink.com 1.10,2013-05-19 11:35:00,
2013-05-19 07:50:00,55.7,55.0,30.28,South,190,0.0,-999.0,96,-99.99,,,0.09,30,weatherlink.com 1.10,2013-05-19 11:50:00,
2013-05-19 08:05:00,55.8,55.0,30.28,SSE,159,2.0,-999.0,96,-99.99,,,0.09,56,weatherlink.com 1.10,2013-05-19 12:05:00,
2013-05-19 08:20:00,56.0,55.0,30.29,SSE,159,0.0,-999.0,96,-99.99,,,0.09,54,weatherlink.com 1.10,2013-05-19 12:20:00,
2013-05-19 08:35:00,56.2,55.0,30.29,SSW,205,0.0,-999.0,96,-99.99,,,0.10,54,weatherlink.com 1.10,2013-05-19 12:35:00,
2013-05-19 08:50:00,56.1,55.0,30.30,South,191,3.0,-999.0,96,-99.99,,,0.10,26,weatherlink.com 1.10,2013-05-19 12:50:00,
2013-05-19 09:05:00,56.0,55.0,30.30,ESE,120,1.0,-999.0,96,-99.99,,,0.10,44,weatherlink.com 1.10,2013-05-19 13:05:00,
2013-05-19 09:20:00,56.1,55.0,30.30,South,173,2.0,-999.0,96,-99.99,,,0.10,107,weatherlink.com 1.10,2013-05-19 13:20:00,
2013-05-19 09:35:00,56.4,55.0,30.30,SSW,195,0.0,-999.0,96,-99.99,,,0.10,70,weatherlink.com 1.10,2013-05-19 13:35:00,
2013-05-19 09:50:00,56.4,55.0,30.30,SE,146,0.0,-999.0,96,-99.99,,,0.10,93,weatherlink.com 1.10,2013-05-19 13:50:00,
2013-05-19 10:05:00,56.5,55.0,30.30,South,173,1.0,-999.0,96,-99.99,,,0.10,83,weatherlink.com 1.10,2013-05-19 14:05:00,
2013-05-19 10:20:00,56.6,56.0,30.30,SSE,162,1.0,-999.0,96,-99.99,,,0.10,56,weatherlink.com 1.10,2013-05-19 14:20:00,
2013-05-19 10:35:00,56.6,56.0,30.31,SSE,157,1.0,-999.0,96,-99.99,,,0.10,70,weatherlink.com 1.10,2013-05-19 14:35:00,
2013-05-19 10:50:00,56.6,55.0,30.31,SSW,197,2.0,-999.0,95,-99.99,,,0.10,53,weatherlink.com 1.10,2013-05-19 14:50:00,
2013-05-19 11:05:00,56.7,56.0,30.30,SSW,196,0.0,-999.0,96,-99.99,,,0.10,77,weatherlink.com 1.10,2013-05-19 15:05:00,
2013-05-19 11:20:00,56.7,56.0,30.30,South,169,4.0,-999.0,96,-99.99,,,0.10,88,weatherlink.com 1.10,2013-05-19 15:20:00,
2013-05-19 11:35:00,56.9,56.0,30.30,SSE,163,0.0,-999.0,96,-99.99,,,0.11,95,weatherlink.com 1.10,2013-05-19 15:35:00,
2013-05-19 11:50:00,56.9,56.0,30.29,East,80,3.0,-999.0,96,-99.99,,,0.11,65,weatherlink.com 1.10,2013-05-19 15:50:00,
2013-05-19 12:05:00,57.0,56.0,30.29,South,173,4.0,-999.0,96,-99.99,,,0.11,81,weatherlink.com 1.10,2013-05-19 16:05:00,
2013-05-19 12:20:00,57.1,56.0,30.28,SSE,155,6.0,-999.0,96,-99.99,,,0.11,83,weatherlink.com 1.10,2013-05-19 16:20:00,
2013-05-19 12:35:00,57.2,56.0,30.28,South,176,4.0,-999.0,96,-99.99,,,0.11,83,weatherlink.com 1.10,2013-05-19 16:35:00,
2013-05-19 12:50:00,57.3,56.0,30.28,SE,130,4.0,-999.0,96,-99.99,,,0.11,53,weatherlink.com 1.10,2013-05-19 16:50:00,
2013-05-19 13:05:00,57.0,56.0,30.27,South,184,4.0,-999.0,95,-99.99,,,0.11,49,weatherlink.com 1.10,2013-05-19 17:05:00,
2013-05-19 13:20:00,56.9,56.0,30.27,SSW,197,6.0,-999.0,95,-99.99,,,0.11,62,weatherlink.com 1.10,2013-05-19 17:20:00,
2013-05-19 13:35:00,56.9,56.0,30.26,SSW,194,5.0,-999.0,95,-99.99,,,0.12,65,weatherlink.com 1.10,2013-05-19 17:35:00,
2013-05-19 13:50:00,56.8,55.0,30.26,NW,316,4.0,-999.0,95,-99.99,,,0.12,90,weatherlink.com 1.10,2013-05-19 17:50:00,
2013-05-19 14:05:00,56.7,56.0,30.26,SSW,196,4.0,-999.0,96,-99.99,,,0.12,104,weatherlink.com 1.10,2013-05-19 18:05:00,
2013-05-19 14:20:00,56.6,56.0,30.26,SSE,168,0.0,-999.0,96,-99.99,,,0.13,69,weatherlink.com 1.10,2013-05-19 18:20:00,
2013-05-19 14:35:00,56.6,56.0,30.26,SSW,192,3.0,-999.0,96,-99.99,,,0.14,93,weatherlink.com 1.10,2013-05-19 18:35:00,
2013-05-19 14:50:00,56.6,56.0,30.25,ESE,119,2.0,-999.0,96,-99.99,,,0.14,113,weatherlink.com 1.10,2013-05-19 18:50:00,
2013-05-19 15:05:00,56.8,56.0,30.25,South,172,7.0,-999.0,96,-99.99,,,0.14,137,weatherlink.com 1.10,2013-05-19 19:05:00,
2013-05-19 15:20:00,57.0,56.0,30.24,SSW,192,1.0,-999.0,96,-99.99,,,0.14,181,weatherlink.com 1.10,2013-05-19 19:20:00,
2013-05-19 15:35:00,57.1,56.0,30.23,South,178,2.0,-999.0,96,-99.99,,,0.15,134,weatherlink.com 1.10,2013-05-19 19:35:00,
2013-05-19 15:50:00,57.3,56.0,30.23,WSW,238,4.0,-999.0,96,-99.99,,,0.15,118,weatherlink.com 1.10,2013-05-19 19:50:00,
2013-05-19 16:05:00,57.3,56.0,30.22,South,185,3.0,-999.0,96,-99.99,,,0.15,142,weatherlink.com 1.10,2013-05-19 20:05:00,
2013-05-19 16:20:00,57.4,56.0,30.22,South,177,4.0,-999.0,96,-99.99,,,0.15,125,weatherlink.com 1.10,2013-05-19 20:20:00,
2013-05-19 16:35:00,57.4,56.0,30.23,SSE,148,0.0,-999.0,96,-99.99,,,0.15,116,weatherlink.com 1.10,2013-05-19 20:35:00,
2013-05-19 16:50:00,57.6,57.0,30.22,SSE,155,5.0,-999.0,96,-99.99,,,0.15,109,weatherlink.com 1.10,2013-05-19 20:50:00,
2013-05-19 17:05:00,57.4,56.0,30.22,SSE,148,0.0,-999.0,96,-99.99,,,0.15,111,weatherlink.com 1.10,2013-05-19 21:05:00,
2013-05-19 17:20:00,57.4,56.0,30.22,SSE,158,4.0,-999.0,96,-99.99,,,0.15,70,weatherlink.com 1.10,2013-05-19 21:20:00,
2013-05-19 17:35:00,57.3,56.0,30.21,SSW,202,3.0,-999.0,96,-99.99,,,0.15,93,weatherlink.com 1.10,2013-05-19 21:35:00,
2013-05-19 17:50:00,57.3,56.0,30.21,ESE,103,0.0,-999.0,96,-99.99,,,0.16,62,weatherlink.com 1.10,2013-05-19 21:50:00,
2013-05-19 18:05:00,57.2,56.0,30.21,SSE,160,2.0,-999.0,96,-99.99,,,0.16,47,weatherlink.com 1.10,2013-05-19 22:05:00,
2013-05-19 18:20:00,57.1,56.0,30.21,SSE,150,0.0,-999.0,96,-99.99,,,0.16,33,weatherlink.com 1.10,2013-05-19 22:20:00,
2013-05-19 18:35:00,57.0,56.0,30.20,South,180,2.0,-999.0,96,-99.99,,,0.16,30,weatherlink.com 1.10,2013-05-19 22:35:00,
2013-05-19 18:50:00,56.9,56.0,30.21,SSW,196,0.0,-999.0,96,-99.99,,,0.17,23,weatherlink.com 1.10,2013-05-19 22:50:00,
2013-05-19 19:05:00,56.9,56.0,30.20,SSE,161,4.0,-999.0,97,-99.99,,,0.17,19,weatherlink.com 1.10,2013-05-19 23:05:00,
2013-05-19 19:20:00,56.8,56.0,30.19,SW,216,0.0,-999.0,97,-99.99,,,0.17,14,weatherlink.com 1.10,2013-05-19 23:20:00,
2013-05-19 19:35:00,56.8,56.0,30.20,SSW,213,0.0,-999.0,97,-99.99,,,0.17,7,weatherlink.com 1.10,2013-05-19 23:35:00,
2013-05-19 19:50:00,56.8,56.0,30.19,SSW,193,3.0,-999.0,97,-99.99,,,0.18,0,weatherlink.com 1.10,2013-05-19 23:50:00,
2013-05-19 20:05:00,56.7,56.0,30.20,SSW,205,0.0,-999.0,97,-99.99,,,0.18,0,weatherlink.com 1.10,2013-05-20 00:05:00,
2013-05-19 20:20:00,56.6,56.0,30.20,SSW,205,0.0,-999.0,97,-99.99,,,0.18,0,weatherlink.com 1.10,2013-05-20 00:20:00,
2013-05-19 20:35:00,56.6,56.0,30.20,SSE,159,0.0,-999.0,97,-99.99,,,0.19,0,weatherlink.com 1.10,2013-05-20 00:35:00,
2013-05-19 20:50:00,56.5,56.0,30.20,SSE,158,1.0,-999.0,97,-99.99,,,0.19,0,weatherlink.com 1.10,2013-05-20 00:50:00,
2013-05-19 21:05:00,56.4,56.0,30.19,SSE,159,0.0,-999.0,97,-99.99,,,0.19,0,weatherlink.com 1.10,2013-05-20 01:05:00,
2013-05-19 21:20:00,56.3,56.0,30.19,SSW,195,0.0,-999.0,97,-99.99,,,0.19,0,weatherlink.com 1.10,2013-05-20 01:20:00,
2013-05-19 21:35:00,56.3,56.0,30.19,SSW,195,0.0,-999.0,97,-99.99,,,0.19,0,weatherlink.com 1.10,2013-05-20 01:35:00,
2013-05-19 21:50:00,56.2,55.0,30.19,SE,128,0.0,-999.0,97,-99.99,,,0.19,0,weatherlink.com 1.10,2013-05-20 01:50:00,
2013-05-19 22:05:00,56.3,56.0,30.19,SSE,161,0.0,-999.0,97,-99.99,,,0.19,0,weatherlink.com 1.10,2013-05-20 02:05:00,
2013-05-19 22:20:00,56.2,55.0,30.19,SSE,162,1.0,-999.0,97,-99.99,,,0.19,0,weatherlink.com 1.10,2013-05-20 02:20:00,
2013-05-19 22:35:00,56.2,55.0,30.19,SSE,162,0.0,-999.0,97,-99.99,,,0.19,0,weatherlink.com 1.10,2013-05-20 02:35:00,
2013-05-19 22:50:00,56.2,55.0,30.18,South,191,0.0,-999.0,97,-99.99,,,0.20,0,weatherlink.com 1.10,2013-05-20 02:50:00,
2013-05-19 23:05:00,56.2,55.0,30.18,South,191,0.0,-999.0,97,-99.99,,,0.20,0,weatherlink.com 1.10,2013-05-20 03:05:00,
2013-05-19 23:20:00,56.2,55.0,30.17,South,178,0.0,-999.0,97,-99.99,,,0.20,0,weatherlink.com 1.10,2013-05-20 03:20:00,
2013-05-19 23:35:00,56.2,55.0,30.16,South,178,1.0,-999.0,97,-99.99,,,0.20,0,weatherlink.com 1.10,2013-05-20 03:35:00,
2013-05-19 23:50:00,56.2,55.0,30.15,SSW,195,2.0,-999.0,97,-99.99,,,0.20,0,weatherlink.com 1.10,2013-05-20 03:50:00,